Location: Sternwarte ZA, Rosenfeld-Brittheim
(48.2889°N, 8.6789°E)
Time: 09:29:22
(UTC+02:00)

Tiangong 2 - Visible Passes

Search period start: 22 August 2017 00:00
Search period end: 01 September 2017 00:00
Orbit: 390 x 395 km, 42.8° (Epoch: 21 August)

Date Brightness Start Highest point End Pass type
(mag) Time Alt. Az. Time Alt. Az. Time Alt. Az.
22 Aug 3.1 04:58:46 16° S 04:59:36 17° SSE 05:01:51 10° ESE visible
23 Aug 2.4 05:36:41 13° SW 05:39:04 27° S 05:41:52 10° ESE visible
24 Aug 2.6 04:42:14 23° SSE 04:42:14 23° SSE 04:44:47 10° ESE visible
25 Aug 2.2 05:20:09 20° SW 05:21:39 30° S 05:24:32 10° ESE visible
26 Aug 2.9 04:25:45 23° SE 04:25:45 23° SE 04:27:31 10° ESE visible
26 Aug 2.4 05:58:24 10° WSW 06:01:10 26° S 06:03:55 10° SE visible
27 Aug 2.1 05:03:46 28° SSW 05:04:11 29° S 05:07:03 10° ESE visible
28 Aug 3.7 04:09:30 14° ESE 04:09:30 14° ESE 04:10:05 10° ESE visible
28 Aug 2.7 05:41:53 14° WSW 05:43:38 21° SSW 05:46:08 10° SE visible
29 Aug 2.8 04:47:44 21° SSE 04:47:44 21° SSE 04:49:24 10° SE visible
30 Aug 3.1 05:26:10 15° SSW 05:26:10 15° SSW 05:27:56 10° SSE visible
